AGILE

Last updated on Wed Feb 14 2024 00:03:20 GMT+0000 (Coordinated Universal Time)

1 31135U 07013A 24039.00000000 .02708747 -37185-4 64323-3 0 9997 2 31135 2.4637 60.5051 0002597 58.1662 329.6832 16.28281628937887

Satellite not in orbit

AGILE